User: anonymous
Location: Newark
(40.7360°N, 74.1730°W)
Time: 19:54:30
(UTC-04:00)
Language:

ISS - Orbit

View from above orbital plane
View from above orbital plane
View from above satellite
View from above satellite

Ground track
Ground track

The orbit data is extracted from the following two-line orbital elements,

1 25544U 98067A   14114.79478569  .00049552  00000-0  85776-3 0  1506
2 25544 051.6677 004.2218 0012334 328.2777 106.2884 15.50349007883046
Epoch (UTC): 24 April 2014 19:04:29
Eccentricity: 0.0012334
inclination: 51.6677°
perigee height: 407 km
apogee height: 424 km
right ascension of ascending node: 4.2218°
argument of perigee: 328.2777°
revolutions per day: 15.50349007
mean anomaly at epoch: 106.2884°
orbit number at epoch: 88304

The dashed part of the orbit path shows where the satellite is in the earth's shadow,  

DLR